Regional Weather Roundup
Issued by NWS

Home | Current Version | Previous Version | Graphics & Text | Print | Product List | Glossary On
Versions: 1 2 3 4 5 6 7 8 9 10 11 12 13 14 15 16 17 18 19 20 21 22 23 24 25 26 27 28 29 30 31 32 33 34 35 36 37 38 39 40 41 42 43 44 45 46 47 48 49 50
000
ASUS43 KDMX 210301
RWRIA

WEATHER ROUNDUP FOR IOWA
NATIONAL WEATHER SERVICE DES MOINES IA
900 PM CST MON NOV 20 2017

NOTE: "FAIR" INDICATES FEW OR NO CLOUDS BELOW 12,000 FEET WITH NO
SIGNIFICANT WEATHER AND/OR OBSTRUCTIONS TO VISIBILITY.

* - THESE STATIONS ARE NOT NWS STATIONS...THUS NOT UNDER NWS
QUALITY CONTROL.  THEY ALSO DO NOT REPORT WEATHER SUCH
AS PRECIPITATION OR FOG.

IAZ001>003-012>014-020>022-031>034-043>046-210400-
   NORTHWEST IOWA

CITY           SKY/WX    TMP DP  RH WIND       PRES   REMARKS
CARROLL *      PTCLDY    48  28  46 SW17G23   29.61S
CHEROKEE *     CLOUDY    38  29  69 S3        29.62S
DENISON *      CLOUDY    45  28  53 SW5       29.65R
LE MARS *      CLOUDY    36  28  75 CALM      29.63R
ORANGE CITY *  CLOUDY    39  28  65 W6        29.62S WCI  35
SHELDON *      CLOUDY    37  25  60 SW5       29.60R WCI  34
SIOUX CITY     CLOUDY    35  28  75 NW5       29.64R WCI  31
SPENCER        CLOUDY    42  27  55 W10       29.60S
STORM LAKE *   PTCLDY    43  28  56 W12       29.62R
$$

IAZ055>058-069>071-079>083-090>094-210400-
   SOUTHWEST IOWA

CITY           SKY/WX    TMP DP  RH WIND       PRES   REMARKS
ATLANTIC *     CLOUDY    37  30  75 SW7       29.65S WCI  32
AUDUBON *      PTCLDY    46  28  49 S5        29.64F
CLARINDA *       N/A     41  30  65 CALM        N/A
COUNCIL BLFS * CLOUDY    45  28  53 SW8       29.65R
CRESTON *      PTCLDY    45  30  57 S12       29.68S
HARLAN  *      CLOUDY    41  30  65 S8        29.67S
LAMONI         PTCLDY    51  31  46 SW14      29.68F
RED OAK *      MOCLDY    43  28  56 CALM      29.67R
SHENANDOAH *   PTCLDY    41  30  65 SW3       29.68R
$$

IAZ047>049-059>061-072>074-084-210400-
   CENTRAL IOWA

CITY           SKY/WX    TMP DP  RH WIND       PRES   REMARKS
AMES           PTCLDY    44  32  62 SW7       29.62F
ANKENY *       MOCLDY    50  30  46 SW9       29.65R
BOONE *        CLOUDY    46  30  53 SW10      29.60F
CHARITON *     CLOUDY    50  30  46 SW13      29.66F
DES MOINES     PTCLDY    47  30  51 SW8       29.65R
GRINNELL*      CLOUDY    50  32  50 SW13      29.65F
KNOXVILLE *    CLOUDY    54  28  37 SW15      29.63F
MARSHALLTOWN   PTCLDY    46  32  58 SW9       29.62R
NEWTON *       CLOUDY    50  32  50 SW12      29.65R
PELLA *        CLOUDY    53  30  41 SW12      29.66F
PERRY *          N/A     42  27  55 S8        29.63S
$$

IAZ004>006-015-016-023>025-035-036-210400-
   NORTH CENTRAL IOWA

CITY           SKY/WX    TMP DP  RH WIND       PRES   REMARKS
ALGONA *       MOCLDY    43  32  65 W12       29.59S
CLARION *      PTCLDY    37  32  81 SW7       29.61R WCI  32
ESTHERVILLE    CLOUDY    40  28  62 W9        29.58S WCI  34
FORT DODGE *   CLOUDY    42  29  59 SW6       29.62R
MASON CITY     CLEAR     43  28  55 W16       29.59R
FOREST CITY *    N/A     36  30  80 SW3       29.58R
WEBSTER CITY * PTCLDY    46  30  53 SW14      29.58S
IOWA FALLS *     N/A     46  32  58 SW14      29.60F
$$

IAZ007>011-017>019-026>030-037>042-050>054-066-210400-
   NORTHEAST IOWA

CITY           SKY/WX    TMP DP  RH WIND       PRES   REMARKS
CEDAR RAPIDS   MOCLDY    50  31  48 S14       29.62F
CHARLES CITY * CLOUDY    43  30  61 SW9       29.57S
CLINTON *      CLOUDY    51  32  48 SW20      29.67F
DECORAH *      MOCLDY    46  32  57 VRB8G16   29.54S
DUBUQUE        CLOUDY    50  30  46 SW21G32   29.59F
MONTICELLO *   PTCLDY    48  32  53 S7        29.62F
OELWEIN *      MOCLDY    43  32  65 SW10      29.60S
WATERLOO       PTCLDY    47  30  51 SW14      29.59S
$$

IAZ064-065-067-068-078-210400-
   EAST CENTRAL IOWA

CITY           SKY/WX    TMP DP  RH WIND       PRES   REMARKS
DAVENPORT      CLOUDY    49  31  49 S14G24    29.70F
IOWA CITY      CLOUDY    53  31  42 S10       29.67F
MT. PLEASANT * CLOUDY    49  31  49 S14       29.70F
MUSCATINE *    CLOUDY    54  32  43 S18G24    29.68F
QUAD CITIES    CLOUDY    51  31  46 S14G22    29.68F
$$

IAZ062-063-075>077-085>089-095>099-210400-
   SOUTHEAST IOWA

CITY           SKY/WX    TMP DP  RH WIND       PRES   REMARKS
BURLINGTON     PTCLDY    49  32  52 S14       29.72F
FAIRFIELD *    MOCLDY    52  28  40 SW14G20   29.67F
FORT MADISON * MOCLDY    52  30  43 S12G17    29.73F
KEOKUK *       CLOUDY    52  30  43 S14       29.73F
OSKALOOSA *      N/A     51  32  48 SW20      29.65F
OTTUMWA        CLOUDY    53  30  41 SW15      29.66F
WASHINGTON *   CLOUDY    52  32  46 SW14      29.68F
$$

ABBREVIATIONS USED IN REMARKS
   TC - TEMPERATURES IN CELSIUS
  WCI - WIND CHILL INDEX
   HX - HEAT INDEX
  VSB - VISIBILITY
$$




USA.gov is the U.S. government's official web portal to all federal, state and local government web resources and services.